User: anonymous   Login
Location: Newark
(35.8833°N, 14.5000°E)
Time: 20:42:01
(UTC+00:00)
Language:

S-56A Canister/Altair - Orbit

View from above orbital plane
View from above orbital plane
View from above satellite
View from above satellite

Ground track
Ground track

The orbit data is extracted from the following two-line orbital elements,

1    82U 61004B   19326.15971485 -.00000050  00000-0 -35411-5 0  9998
2    82  38.8554 249.6422 1173724 158.3156 207.1733 12.26056154782246
Epoch (UTC): 22 November 2019 03:49:59
Eccentricity: 0.1173724
inclination: 38.8554°
perigee height: 634 km
apogee height: 2499 km
right ascension of ascending node: 249.6422°
argument of perigee: 158.3156°
revolutions per day: 12.26056154
mean anomaly at epoch: 207.1733°
orbit number at epoch: 78224

The dashed part of the orbit path shows where the satellite is in the earth's shadow,  

DLR